Regional Weather Roundup
Issued by NWS Sioux Falls, SD

Home | Current Version | Previous Version | Text Only | Print | Product List | Glossary On
Versions: 1 2 3 4 5 6 7 8 9 10 11 12 13 14 15 16 17 18 19 20 21 22 23 24 25 26 27 28 29 30 31 32 33 34 35 36 37 38 39 40 41 42 43 44 45 46 47 48 49 50
000
ASUS43 KFSD 270710
RWRFSD

WEATHER ROUNDUP FOR SE SOUTH DAKOTA/SW MINNESOTA/NW IOWA
NATIONAL WEATHER SERVICE SIOUX FALLS SD
200 AM CDT MON MAR 27 2017

NOTE: "FAIR" INDICATES FEW OR NO CLOUDS BELOW 12,000 FEET WITH NO
SIGNIFICANT WEATHER AND OR OBSTRUCTIONS TO VISIBILITY.


SDZ038>040-050-052>070-270800-
SOUTHEAST SOUTH DAKOTA

CITY           SKY/WX    TMP DP  RH WIND       PRES   REMARKS
BROOKINGS      CLOUDY    35  34  96 CALM      29.94F FOG
CHAMBERLAIN    FOG       32  32 100 SW3       29.96S VSB 1/2
HURON          CLOUDY    38  37  97 CALM      29.95S
MADISON        FAIR      32  32 100 W3        29.95S FOG
MITCHELL       CLOUDY    37  36  96 S5        29.96F
SIOUX FALLS    CLOUDY    43  39  86 NW3       29.96R
WINNER         FAIR      37  34  89 S7        29.94F
YANKTON        CLOUDY    43  39  87 CALM      29.96R
$$

MNZ071-072-080-081-089-090-097-098-270800-
SOUTHWEST MINNESOTA

CITY           SKY/WX    TMP DP  RH WIND       PRES   REMARKS
FAIRMONT       CLOUDY    39  37  92 NW3       29.93S
JACKSON        CLOUDY    36  36 100 NW5       29.93F FOG
LUVERNE        CLOUDY    37  36  93 NW5       29.95S
MARSHALL       CLOUDY    38  36  92 W8        29.95R
MONTEVIDEO     MOCLDY    36  34  93 NW5       29.98R
PIPESTONE      FOG       32  28  86 E3        29.94R VSB 1/2
REDWOOD FALLS  CLOUDY    40  37  89 S3        29.94S
TRACY          CLOUDY    41  38  91 W6        29.95R
WINDOM         PTCLDY    39  37  93 CALM      29.93S
WORTHINGTON    CLOUDY    37  36  96 W7        29.94R
$$

IAZ001>003-012>014-020>022-031-032-NEZ013-014-SDZ071-270800-
NORTHWEST IOWA

CITY           SKY/WX    TMP DP  RH WIND       PRES   REMARKS
CHEROKEE       CLOUDY    41  40  95 CALM      29.94S
ESTHERVILLE    CLOUDY    38  38 100 NW6       29.91F
LE MARS        CLOUDY    43  39  87 CALM      29.95S
ORANGE CITY    CLOUDY    41  39  93 CALM      29.94S
SHELDON        CLOUDY    39  39 100 NW5       29.93S
SIOUX CITY     CLOUDY    45  40  82 NE3       29.95S
SPENCER        CLOUDY    40  38  93 W6        29.93S
STORM LAKE     CLOUDY    39  37  93 CALM      29.93S
$$

ABBREVIATIONS USED IN REMARKS
   TC - TEMPERATURE IN CELSIUS
  WCI - WIND CHILL INDEX
   HX - HEAT INDEX
  VSB - VISIBILITY





USA.gov is the U.S. government's official web portal to all federal, state and local government web resources and services.